Location: Unspecified
(0.0000°N, 0.0000°E)
Time: 12:01:42
(UTC+00:00)

CZ-3C DEB - Pass Details

Date: 20 February 2026
Orbit: 408 x 32633 km, 21.5° (Epoch: 28 September)

Event Time Altitude Azimuth Distance (km) Brightness Sun altitude
Rises 20:18:21 0° 236° (WSW) 2,651 ? -30.6°
Reaches altitude 10° 20:19:43 10° 232° (SW) 2,029 ? -30.9°
Enters shadow 20:23:12 59° 171° (S) 1,239 ? -31.8°
